FW2417 Weather Reports


Display with metric or nautical units.
time (UTC)temp
F
wind
direction
speed
MPH
gust
MPH
rain 1hr
in
rain 24hr
in
rain mn
in
humidity
%
barometer
mb
20260906024506 80 221 0.0 0.0 0.00 0.00 0.00 58 1019.7
20260906023100 80 221 0.0 0.0 0.00 0.00 0.00 58 1019.7
20260906021603 80 221 0.0 1.0 0.00 0.00 0.00 57 1019.6
20260906020109 81 221 0.0 1.0 0.00 0.00 0.00 56 1019.7
20260906014609 81 221 0.0 1.0 0.00 0.00 0.00 57 1019.7
20260906013107 81 221 0.0 2.0 0.00 0.00 0.00 57 1019.8
20260906011601 81 219 0.0 2.0 0.00 0.00 0.00 57 1019.9
20260906010139 81 242 0.0 3.0 0.00 0.00 0.00 58 1019.9
20260906004614 81 241 1.0 3.0 0.00 0.00 0.00 58 1019.9
20260906003050 81 235 0.0 3.0 0.00 0.00 0.00 57 1019.7
20260906001600 81 238 1.0 5.0 0.00 0.00 0.00 57 1019.8
20260906000015 81 207 1.0 6.0 0.00 0.00 0.00 57 1019.8
20260905234540 81 221 2.0 7.0 0.00 0.00 0.00 57 1019.8
20260905233037 82 224 4.0 10.0 0.00 0.00 0.00 58 1019.8
20260905231535 83 219 2.0 8.0 0.00 0.00 0.00 59 1019.7
20260905230034 83 223 4.0 11.0 0.00 0.00 0.00 59 1019.6
20260905224616 84 236 2.0 6.0 0.00 0.00 0.00 58 1019.5
20260905223104 84 210 2.0 8.0 0.00 0.00 0.00 55 1019.6
20260905221603 84 217 2.0 6.0 0.00 0.00 0.00 55 1019.5
20260905220058 85 179 0.0 3.0 0.00 0.00 0.00 54 1019.3
20260905214549 85 129 0.0 1.0 0.00 0.00 0.00 51 1019.2
20260905213039 86 134 0.0 2.0 0.00 0.00 0.00 48 1019.2
20260905211546 87 155 1.0 3.0 0.00 0.00 0.00 45 1018.9
20260905210045 88 131 0.0 2.0 0.00 0.00 0.00 40 1018.9
20260905204510 89 111 0.0 2.0 0.00 0.00 0.00 32 1018.8
20260905203007 89 77 0.0 2.0 0.00 0.00 0.00 31 1018.6
20260905201505 90 77 0.0 2.0 0.00 0.00 0.00 31 1018.4
20260905200049 90 53 0.0 1.0 0.00 0.00 0.00 31 1018.3
20260905194509 90 78 0.0 2.0 0.00 0.00 0.00 31 1018.0
20260905193004 91 235 0.0 1.0 0.00 0.00 0.00 30 1017.9
20260905191505 92 235 0.0 1.0 0.00 0.00 0.00 30 1017.8
20260905190005 92 235 0.0 1.0 0.00 0.00 0.00 30 1017.8
20260905184543 93 233 0.0 0.0 0.00 0.00 0.00 31 1017.8
20260905183039 94 233 0.0 0.0 0.00 0.00 0.00 29 1017.8
20260905181510 94 233 0.0 1.0 0.00 0.00 0.00 30 1017.6
20260905180009 95 233 0.0 1.0 0.00 0.00 0.00 30 1017.5
20260905174542 95 233 0.0 1.0 0.00 0.00 0.00 29 1017.6
20260905173053 96 233 0.0 2.0 0.00 0.00 0.00 31 1017.9
20260905171553 96 235 0.0 5.0 0.00 0.00 0.00 28 1017.7
20260905170047 96 124 0.0 6.0 0.00 0.00 0.00 31 1017.4
20260905164546 96 111 1.0 4.0 0.00 0.00 0.00 30 1017.6
20260905163007 96 80 0.0 3.0 0.00 0.00 0.00 30 1017.4
20260905161508 96 86 0.0 2.0 0.00 0.00 0.00 31 1018.1
20260905160003 96 227 0.0 0.0 0.00 0.00 0.00 33 1018.3
20260905154614 96 227 0.0 2.0 0.00 0.00 0.00 33 1018.6
20260905153108 97 136 0.0 3.0 0.00 0.00 0.00 27 1018.5
20260905151624 96 137 1.0 4.0 0.00 0.00 0.00 27 1018.6
20260905150058 97 212 0.0 4.0 0.00 0.00 0.00 27 1018.8
20260905144604 96 145 1.0 4.0 0.00 0.00 0.00 28 1018.7
20260905143059 96 136 0.0 6.0 0.00 0.00 0.00 29 1019.0
20260905141559 96 135 1.0 5.0 0.00 0.00 0.00 29 1018.9
20260905140055 95 146 2.0 8.0 0.00 0.00 0.00 30 1019.1
20260905134553 94 123 0.0 7.0 0.00 0.00 0.00 33 1018.8
20260905133049 94 134 0.0 6.0 0.00 0.00 0.00 35 1019.2
20260905131601 93 231 0.0 0.0 0.00 0.00 0.00 40 1019.4
20260905130049 94 225 0.0 2.0 0.00 0.00 0.00 38 1019.8
20260905124549 94 134 0.0 1.0 0.00 0.00 0.00 34 1019.6
20260905123138 94 136 0.0 4.0 0.00 0.00 0.00 36 1019.6
20260905121557 92 129 0.0 0.0 0.00 0.00 0.00 40 1019.7
20260905120048 91 74 0.0 1.0 0.00 0.00 0.00 47 1019.8
20260905114548 90 82 0.0 1.0 0.00 0.00 0.00 50 1019.9
20260905113041 89 130 0.0 3.0 0.00 0.00 0.00 50 1020.0
20260905111512 89 89 0.0 1.0 0.00 0.00 0.00 49 1020.2
20260905110004 88 131 0.0 4.0 0.00 0.00 0.00 52 1020.3
20260905104531 87 92 1.0 6.0 0.00 0.00 0.00 53 1020.3
20260905103040 87 86 3.0 6.0 0.00 0.00 0.00 51 1020.3
20260905101615 87 79 1.0 5.0 0.00 0.00 0.00 53 1020.4
20260905100109 88 151 0.0 2.0 0.00 0.00 0.00 51 1020.4
20260905094559 88 158 0.0 2.0 0.00 0.00 0.00 53 1020.3
20260905093049 86 212 0.0 2.0 0.00 0.00 0.00 57 1020.4
20260905091554 84 135 0.0 2.0 0.00 0.00 0.00 62 1020.3
20260905090047 82 206 0.0 3.0 0.00 0.00 0.00 66 1020.2
20260905084600 82 141 0.0 4.0 0.00 0.00 0.00 65 1020.1
20260905083050 81 242 0.0 1.0 0.00 0.00 0.00 65 1019.7
20260905081547 80 130 0.0 3.0 0.00 0.00 0.00 68 1020.3
20260905080111 81 252 0.0 1.0 0.00 0.00 0.00 67 1019.8
20260905074551 80 236 0.0 5.0 0.00 0.00 0.00 68 1019.8
20260905073048 81 217 0.0 4.0 0.00 0.00 0.00 68 1020.2
20260905071547 80 228 0.0 2.0 0.00 0.00 0.00 68 1019.5
20260905070053 80 213 1.0 4.0 0.00 0.00 0.00 67 1019.3
20260905064551 81 248 0.0 4.0 0.00 0.00 0.00 66 1019.0
20260905063017 81 232 0.0 1.0 0.00 0.00 0.00 65 1018.6
20260905061555 81 232 0.0 1.0 0.00 0.00 0.00 66 1018.8
20260905060036 80 232 0.0 1.0 0.00 0.00 0.00 68 1018.3
20260905054546 82 229 0.0 1.0 0.00 0.00 0.00 63 1018.1
20260905053033 84 228 0.0 2.0 0.00 0.00 0.00 50 1017.7
20260905051507 83 120 0.0 1.0 0.00 0.00 0.00 54 1017.6
20260905050113 82 64 0.0 1.0 0.00 0.00 0.00 63 1017.5
20260905044615 83 74 0.0 1.0 0.00 0.00 0.00 62 1017.6
20260905043115 83 93 0.0 0.0 0.00 0.00 0.00 62 1017.6
20260905041611 84 94 0.0 1.0 0.00 0.00 0.00 60 1017.3
20260905040105 83 93 0.0 1.0 0.00 0.00 0.00 62 1017.4
20260905034611 84 96 0.0 1.0 0.00 0.00 0.00 59 1017.2
20260905033107 84 107 0.0 1.0 0.00 0.00 0.00 60 1017.3
20260905031609 84 256 0.0 0.0 0.00 0.00 0.00 62 1017.6
20260905030106 85 256 0.0 1.0 0.00 0.00 0.00 59 1017.6